Regional Weather Roundup
Issued by NWS

Home | Current Version | Previous Version | Graphics & Text | Print | Product List | Glossary On
Versions: 1 2 3 4 5 6 7 8 9 10 11 12 13 14 15 16 17 18 19 20 21 22 23 24 25 26 27
000
ASUS45 KBOI 110310
RWRID

IDAHO REGIONAL WEATHER ROUNDUP
NATIONAL WEATHER SERVICE BOISE ID
800 PM MST SUN DEC 10 2017

NOTE: "FAIR" INDICATES FEW OR NO CLOUDS BELOW 12000 FEET
WITH NO SIGNIFICANT WEATHER AND/OR OBSTRUCTIONS TO VISIBILITY

IDZ012-014-110400-
SOUTHWEST IDAHO


CITY           SKY/WX    TMP DP  RH WIND       PRES   REMARKS
BOISE          CLOUDY    26  20  77 S3        30.66R
CALDWELL       CLOUDY    28  21  75 CALM      30.69S
MOUNTAIN HOME  CLOUDY    23  23 100 S3        30.65S
$$

IDZ016-017-110400-
SOUTHCENTRAL IDAHO


CITY           SKY/WX    TMP DP  RH WIND       PRES   REMARKS
BURLEY         CLEAR     22  19  89 NW3       30.57R
JEROME         CLEAR     19  16  88 NW6       30.59S WCI  11
TWIN FALLS     MOCLDY    15  12  88 S6        30.58R FOG     WCI   6
$$

IDZ019>023-110400-
SOUTHEAST IDAHO


CITY           SKY/WX    TMP DP  RH WIND       PRES   REMARKS
IDAHO FALLS    CLOUDY    12  11  95 N3        30.59R
POCATELLO      CLOUDY    17  13  84 CALM      30.59R
REXBURG        CLOUDY    17  14  88 NE5       30.58R WCI  10
$$

IDZ006-010-011-018-031-032-110400-
CENTRAL IDAHO MOUNTAINS


CITY           SKY/WX    TMP DP  RH WIND       PRES   REMARKS
MCCALL         CLEAR     15  11  83 CALM      30.52S
HAILEY         CLEAR     28  19  69 NW8       30.56S WCI  20
STANLEY          N/A     10   6  84 S3        30.59R
SALMON         CLOUDY    17  13  84 CALM      30.72R
CHALLIS        CLEAR     14   8  77 CALM      30.62R
$$

IDZ002-004-006-007-026-110400-
NORTHERN IDAHO


CITY           SKY/WX    TMP DP  RH WIND       PRES   REMARKS
LEWISTON       CLEAR     27  24  89 W3        30.63S
LOWELL           N/A     26  24  92 CALM      30.65R
COEUR D`ALENE  CLOUDY    28  25  88 NE7       30.60S WCI  21
MULLAN PASS    CLEAR     38  32  79 S3        30.48S
$$




USA.gov is the U.S. government's official web portal to all federal, state and local government web resources and services.